This is the latest recevied weather packets stored in our database for station/object KK6MIG-13. If no packets are shown the sender has not sent any weather packets the latest 10 day(s).
| Time | Temp. | Humidity | Pressure | Rain* | Wind** | Luminosity | Snow |
|---|---|---|---|---|---|---|---|
| 1777414293 | 15.56° C | 26% | 1018.1 hPa | 0 mm | - | 840 W/m² | - |
| 1777414233 | 15.56° C | 25% | 1018.1 hPa | 0 mm | - | 844 W/m² | - |
| 1777414172 | 15.56° C | 27% | 1018.1 hPa | 0 mm | - | 846 W/m² | - |
| 1777414110 | 15.56° C | 25% | 1018.2 hPa | 0 mm | - | 851 W/m² | - |
| 1777414045 | 15.56° C | 16% | 1018.2 hPa | 0 mm | - | 851 W/m² | - |
| 1777413984 | 15.56° C | 16% | 1018.2 hPa | 0 mm | - | 851 W/m² | - |
| 1777413924 | 15.56° C | 16% | 1018.2 hPa | 0 mm | - | 854 W/m² | - |
| 1777413864 | 15.56° C | 11% | 1018.2 hPa | 0 mm | - | 854 W/m² | - |
| 1777413804 | 15.56° C | 9% | 1018.3 hPa | 0 mm | - | 854 W/m² | - |
| 1777413741 | 15° C | 9% | 1018.3 hPa | 0 mm | - | 860 W/m² | - |
| 1777413678 | 15° C | 11% | 1018.2 hPa | 0 mm | - | 861 W/m² | - |
| 1777413618 | 15° C | 15% | 1018.2 hPa | 0 mm | - | 860 W/m² | - |
| 1777413559 | 15° C | 15% | 1018.3 hPa | 0 mm | - | 863 W/m² | - |
| 1777413498 | 15° C | 15% | 1018.3 hPa | 0 mm | - | 865 W/m² | - |
| 1777413432 | 15° C | 13% | 1018.3 hPa | 0 mm | - | 868 W/m² | - |
| 1777413372 | 15° C | 13% | 1018.3 hPa | 0 mm | - | 867 W/m² | - |
| 1777413313 | 15° C | 16% | 1018.3 hPa | 0 mm | - | 868 W/m² | - |
| 1777413253 | 15° C | 16% | 1018.3 hPa | 0 mm | - | 872 W/m² | - |
| 1777413192 | 15° C | 14% | 1018.4 hPa | 0 mm | - | 874 W/m² | - |
| 1777413126 | 15° C | 16% | 1018.4 hPa | 0 mm | - | 875 W/m² | - |
| 1777413067 | 15° C | 15% | 1018.4 hPa | 0 mm | - | 881 W/m² | - |
| 1777413007 | 15° C | 10% | 1018.4 hPa | 0 mm | - | 875 W/m² | - |
| 1777412946 | 15° C | 8% | 1018.4 hPa | 0 mm | - | 879 W/m² | - |
| 1777412889 | 15° C | 5% | 1018.4 hPa | 0 mm | - | 886 W/m² | - |
| 1777412885 | 15° C | 9% | 1018.4 hPa | 0 mm | - | 884 W/m² | - |
* Rain latest hour (hover to see other rain measurements)
** Current wind speed in m/s (hover to see current wind gust speed)